GW5972 Weather Reports


time (UTC)temp
F
wind
direction
speed
knots
gust
knots
rain 1hr
in
rain 24hr
in
rain mn
in
humidity
%
barometer
mb
20260508122336 64 218 0.9 1.7 0.00 0.00 0.00 49 1010.0
20260508121838 63 180 0.0 0.9 0.00 0.00 0.00 55 1010.0
20260508121336 62 210 0.0 0.9 0.00 0.00 0.00 57 1010.0
20260508120839 61 167 0.9 1.7 0.00 0.00 0.00 58 1010.0
20260508120339 60 203 0.0 0.9 0.00 0.00 0.00 61 1010.0
20260508115836 59 204 0.0 0.9 0.00 0.00 0.00 63 1010.0
20260508115336 59 206 0.0 0.0 0.00 0.00 0.00 64 1010.0
20260508114838 58 209 0.0 0.0 0.00 0.00 0.00 65 1010.0
20260508114337 58 209 0.0 0.9 0.00 0.00 0.00 63 1010.0
20260508113837 59 202 0.0 0.0 0.00 0.00 0.00 64 1010.0
20260508113337 59 201 0.0 0.0 0.00 0.00 0.00 65 1010.0
20260508112837 59 201 0.9 1.7 0.00 0.00 0.00 63 1010.0
20260508112337 59 182 0.0 0.0 0.00 0.00 0.00 64 1010.0
20260508111838 59 225 0.0 0.0 0.00 0.00 0.00 64 1010.0
20260508111337 59 225 0.0 0.9 0.00 0.00 0.00 65 1010.0
20260508110836 58 219 0.0 0.0 0.00 0.00 0.00 66 1010.0
20260508110336 58 219 0.0 0.0 0.00 0.00 0.00 64 1010.0
20260508105837 58 177 0.0 0.0 0.00 0.00 0.00 62 1010.0
20260508105337 59 178 0.0 0.0 0.00 0.00 0.00 61 1010.0
20260508104837 59 177 0.0 0.9 0.00 0.00 0.00 57 1010.0
20260508104337 59 171 0.0 0.0 0.00 0.00 0.00 60 1010.0
20260508103836 59 174 0.0 0.0 0.00 0.00 0.00 60 1010.0
20260508103339 59 174 0.0 0.9 0.00 0.00 0.00 64 1010.0
20260508102838 60 161 0.0 0.0 0.00 0.00 0.00 64 1010.0
20260508102342 59 168 0.0 0.0 0.00 0.00 0.00 67 1010.0
20260508101836 59 168 0.0 0.9 0.00 0.00 0.00 68 1010.0
20260508101337 58 169 0.0 0.0 0.00 0.00 0.00 71 1010.0
20260508100836 58 166 0.0 0.9 0.00 0.00 0.00 71 1010.0
20260508100337 57 173 0.0 0.9 0.00 0.00 0.00 66 1010.0
20260508095836 57 173 0.0 0.9 0.00 0.00 0.00 65 1010.0
20260508095336 57 173 0.0 0.0 0.00 0.00 0.00 67 1010.0
20260508094836 57 173 0.0 0.0 0.00 0.00 0.00 69 1010.0
20260508094340 56 173 0.0 0.0 0.00 0.00 0.00 72 1010.0
20260508093836 55 169 0.0 0.0 0.00 0.00 0.00 74 1010.0
20260508093336 55 169 0.0 0.0 0.00 0.00 0.00 75 1010.0
20260508092837 55 188 0.0 0.0 0.00 0.00 0.00 76 1010.0
20260508092336 55 188 0.0 0.0 0.00 0.00 0.00 76 1010.0
20260508091837 54 187 0.0 0.0 0.00 0.00 0.00 75 1010.0
20260508091336 54 187 0.0 0.9 0.00 0.00 0.00 74 1010.0
20260508090837 54 185 0.0 0.0 0.00 0.00 0.00 75 1010.0
20260508090337 54 185 0.0 0.0 0.00 0.00 0.00 74 1010.0
20260508085837 54 168 0.0 0.0 0.00 0.00 0.00 74 1010.0
20260508085336 54 168 0.0 0.9 0.00 0.00 0.00 73 1010.0
20260508084836 54 169 0.0 0.0 0.00 0.00 0.00 74 1010.0
20260508084336 54 169 0.0 0.0 0.00 0.00 0.00 75 1010.0
20260508083836 54 169 0.0 0.0 0.00 0.00 0.00 75 1010.0
20260508083337 53 169 0.0 0.9 0.00 0.00 0.00 74 1010.0
20260508082837 53 161 0.0 0.0 0.00 0.00 0.00 75 1010.0
20260508082336 53 161 0.0 0.0 0.00 0.00 0.00 75 1010.0
20260508081837 53 161 0.0 0.0 0.00 0.00 0.00 76 1010.0
20260508081336 53 161 0.0 0.0 0.00 0.00 0.00 76 1010.0
20260508080836 53 161 0.0 0.0 0.00 0.00 0.00 76 1010.0
20260508080337 52 161 0.0 0.0 0.00 0.00 0.00 76 1010.0
20260508075837 52 161 0.0 0.0 0.00 0.00 0.00 77 1009.0
20260508075337 52 154 0.0 0.9 0.00 0.00 0.00 76 1010.0
20260508074837 52 153 0.0 0.9 0.00 0.00 0.00 77 1010.0
20260508074337 52 153 0.0 0.0 0.00 0.00 0.00 77 1009.0
20260508073836 51 152 0.0 0.0 0.00 0.00 0.00 78 1010.0
20260508073337 51 152 0.0 0.0 0.00 0.00 0.00 77 1010.0
20260508072836 51 148 0.0 0.0 0.00 0.00 0.00 79 1009.0
20260508072336 51 148 0.0 0.0 0.00 0.00 0.00 79 1009.0
20260508071837 51 148 0.0 0.0 0.00 0.00 0.00 80 1010.0
20260508071337 50 148 0.0 0.0 0.00 0.00 0.00 79 1009.0
20260508070837 50 148 0.0 0.0 0.00 0.00 0.00 79 1010.0
20260508070337 50 148 0.0 0.0 0.00 0.00 0.00 80 1009.0
20260508065837 50 148 0.0 0.0 0.00 0.00 0.00 80 1009.0
20260508065337 50 148 0.0 0.0 0.00 0.00 0.00 81 1009.0
20260508064836 49 148 0.0 0.0 0.00 0.00 0.00 81 1009.0
20260508064336 49 148 0.0 0.0 0.00 0.00 0.00 81 1009.0
20260508063837 49 148 0.0 0.0 0.00 0.00 0.00 81 1009.0
20260508063337 49 148 0.0 0.9 0.00 0.00 0.00 81 1009.0
20260508062836 49 148 0.0 0.0 0.00 0.00 0.00 82 1009.0
20260508062336 49 148 0.0 0.0 0.00 0.00 0.00 82 1009.0
20260508061837 49 148 0.0 0.0 0.00 0.00 0.00 82 1009.0
20260508061336 49 148 0.0 0.0 0.00 0.00 0.00 82 1009.0
20260508060432 49 153 0.0 0.9 0.00 0.00 0.00 82 1009.0
20260508055836 49 148 0.0 0.0 0.00 0.00 0.00 83 1009.0
20260508055337 48 147 0.0 0.0 0.00 0.00 0.00 83 1009.0
20260508054838 48 147 0.0 0.0 0.00 0.00 0.00 83 1009.0
20260508054336 48 148 0.0 0.0 0.00 0.00 0.00 83 1009.0
20260508053836 48 147 0.0 0.0 0.00 0.00 0.00 84 1009.0
20260508053336 48 147 0.0 0.0 0.00 0.00 0.00 84 1008.0
20260508052836 48 147 0.0 0.0 0.00 0.00 0.00 84 1008.0
20260508052337 48 147 0.0 0.0 0.00 0.00 0.00 83 1009.0
20260508051836 48 147 0.0 0.0 0.00 0.00 0.00 83 1008.0
20260508051337 48 147 0.0 0.0 0.00 0.00 0.00 83 1009.0
20260508050836 48 147 0.0 0.0 0.00 0.00 0.00 83 1008.0
20260508050336 48 142 0.0 0.9 0.00 0.00 0.00 84 1008.0
20260508045836 48 141 0.0 0.0 0.00 0.00 0.00 84 1008.0
20260508045336 48 142 0.0 0.0 0.00 0.00 0.00 85 1008.0
20260508044836 48 142 0.0 0.0 0.00 0.00 0.00 85 1008.0
20260508044337 48 141 0.0 0.0 0.00 0.00 0.00 85 1008.0
20260508043837 48 142 0.0 0.0 0.00 0.00 0.00 85 1008.0
20260508043336 48 142 0.0 0.0 0.00 0.00 0.00 85 1008.0
20260508042836 48 142 0.0 0.9 0.00 0.00 0.00 85 1008.0
20260508042336 48 142 0.0 0.0 0.00 0.00 0.00 85 1008.0
20260508041836 48 141 0.0 0.0 0.00 0.00 0.00 85 1008.0
20260508041337 48 142 0.0 0.0 0.00 0.00 0.00 85 1008.0
20260508040837 48 142 0.0 0.0 0.00 0.00 0.00 85 1008.0
20260508040337 48 141 0.0 0.0 0.00 0.00 0.00 84 1008.0
20260508035836 48 142 0.0 0.0 0.00 0.00 0.00 84 1008.0
20260508035337 48 141 0.0 0.0 0.00 0.00 0.00 84 1008.0
20260508034836 48 141 0.0 0.0 0.00 0.00 0.00 84 1008.0
20260508034336 48 142 0.0 0.0 0.00 0.00 0.00 84 1008.0
20260508033837 48 141 0.0 0.0 0.00 0.00 0.00 84 1008.0
20260508033337 48 141 0.0 0.0 0.00 0.00 0.00 84 1008.0
20260508032836 48 142 0.0 0.0 0.00 0.00 0.00 84 1008.0
20260508032336 48 141 0.0 0.0 0.00 0.00 0.00 84 1008.0
20260508031837 48 141 0.0 0.0 0.00 0.00 0.00 83 1008.0
20260508031336 48 141 0.0 0.0 0.00 0.00 0.00 83 1008.0
20260508030836 48 141 0.0 0.0 0.00 0.00 0.00 83 1008.0
20260508030336 48 139 0.0 0.0 0.00 0.00 0.00 83 1008.0
20260508025837 48 154 0.0 0.0 0.00 0.00 0.00 84 1008.0
20260508025336 48 131 0.0 0.0 0.00 0.00 0.00 84 1008.0
20260508024836 48 131 0.0 0.0 0.00 0.00 0.00 84 1008.0
20260508024336 48 131 0.0 0.0 0.00 0.00 0.00 84 1008.0
20260508023836 48 131 0.0 0.0 0.00 0.00 0.00 84 1008.0
20260508023336 48 131 0.0 0.0 0.00 0.00 0.00 84 1008.0
20260508022837 48 131 0.0 0.0 0.00 0.00 0.00 83 1008.0
20260508022337 48 131 0.0 0.0 0.00 0.00 0.00 83 1008.0
20260508021837 48 131 0.0 0.0 0.00 0.00 0.00 83 1008.0
20260508021336 48 131 0.0 0.0 0.00 0.00 0.00 83 1008.0
20260508020836 48 131 0.0 0.9 0.00 0.00 0.00 83 1008.0
20260508020336 48 130 0.0 0.9 0.00 0.00 0.00 83 1008.0
20260508015836 48 130 0.0 0.0 0.00 0.00 0.00 83 1008.0
20260508015336 48 130 0.0 0.0 0.00 0.00 0.00 83 1008.0
20260508014836 48 130 0.0 0.0 0.00 0.00 0.00 82 1008.0
20260508014336 48 130 0.0 0.0 0.00 0.00 0.00 82 1008.0
20260508013836 48 130 0.0 0.0 0.00 0.00 0.00 82 1008.0
20260508013338 48 130 0.0 0.0 0.00 0.00 0.00 81 1008.0
20260508012837 48 130 0.0 0.0 0.00 0.00 0.00 81 1008.0
20260508012337 48 130 0.0 0.0 0.00 0.00 0.00 81 1008.0
20260508011836 48 130 0.0 0.0 0.00 0.00 0.00 81 1008.0
20260508011336 48 130 0.0 0.0 0.00 0.00 0.00 81 1008.0
20260508010836 48 130 0.0 0.0 0.00 0.00 0.00 82 1008.0
20260508010336 48 130 0.0 0.0 0.00 0.00 0.00 82 1008.0
20260508005836 48 130 0.0 0.0 0.00 0.00 0.00 82 1008.0
20260508005336 48 130 0.0 0.0 0.00 0.00 0.00 83 1008.0
20260508004837 49 130 0.0 0.0 0.00 0.00 0.00 83 1008.0
20260508004337 49 130 0.0 0.0 0.00 0.00 0.00 82 1008.0
20260508003836 49 130 0.0 0.0 0.00 0.00 0.00 81 1008.0
20260508003336 49 130 0.0 0.0 0.00 0.00 0.00 81 1008.0
20260508002836 49 129 0.0 0.0 0.00 0.00 0.00 81 1008.0
20260508002338 49 130 0.0 0.0 0.00 0.00 0.00 80 1008.0
20260508001836 49 130 0.0 0.0 0.00 0.00 0.00 80 1008.0
20260508001337 50 129 0.0 0.0 0.00 0.00 0.00 79 1008.0
20260508000837 50 130 0.0 0.0 0.00 0.00 0.00 78 1008.0
20260508000337 50 129 0.0 0.0 0.00 0.00 0.00 78 1008.0
20260507235837 50 130 0.0 0.0 0.00 0.00 0.03 77 1008.0
20260507235336 50 129 0.0 0.0 0.00 0.00 0.03 77 1008.0
20260507234837 50 129 0.0 0.0 0.00 0.00 0.03 77 1008.0
20260507234337 50 130 0.0 0.0 0.00 0.00 0.03 77 1008.0
20260507233836 50 130 0.0 0.0 0.00 0.00 0.03 77 1008.0
20260507233336 50 130 0.9 0.9 0.00 0.00 0.03 77 1008.0
20260507232836 50 122 0.0 0.9 0.00 0.00 0.03 77 1008.0
20260507232336 50 124 0.0 0.0 0.00 0.00 0.03 77 1008.0
20260507231836 50 125 0.0 0.0 0.00 0.00 0.03 77 1008.0
20260507231336 50 125 0.0 0.9 0.00 0.00 0.03 77 1008.0
20260507230836 50 124 0.0 0.0 0.00 0.00 0.03 77 1008.0
20260507230337 50 124 0.0 0.0 0.00 0.00 0.03 78 1008.0
20260507225837 50 156 0.0 0.0 0.00 0.00 0.03 78 1008.0
20260507225336 50 156 0.0 0.9 0.00 0.00 0.03 79 1008.0
20260507224836 50 156 0.9 0.9 0.00 0.00 0.03 79 1008.0
20260507224336 49 152 0.0 0.0 0.00 0.00 0.03 80 1008.0
20260507223837 49 152 0.0 0.0 0.00 0.00 0.03 81 1008.0
20260507223336 49 152 0.0 0.0 0.00 0.00 0.03 82 1008.0
20260507222837 49 152 0.0 0.0 0.00 0.00 0.03 84 1008.0
20260507222337 49 152 0.0 0.0 0.00 0.00 0.03 84 1008.0
20260507221836 49 152 0.0 0.0 0.00 0.00 0.03 84 1008.0
20260507221336 49 152 0.0 0.0 0.00 0.00 0.03 85 1008.0
20260507220836 49 152 0.0 0.0 0.00 0.00 0.03 85 1008.0
20260507220337 49 152 0.0 0.0 0.00 0.00 0.03 85 1008.0
20260507215836 49 152 0.0 0.0 0.00 0.00 0.03 85 1008.0
20260507215336 49 152 0.0 0.0 0.00 0.00 0.03 84 1008.0
20260507214837 49 152 0.0 0.0 0.00 0.00 0.03 84 1008.0
20260507214337 49 152 0.0 0.0 0.00 0.00 0.03 83 1008.0
20260507213838 49 152 0.0 0.0 0.00 0.00 0.03 83 1008.0
20260507213336 49 152 0.0 0.0 0.00 0.00 0.03 83 1008.0
20260507212837 49 152 0.0 0.0 0.00 0.00 0.03 83 1008.0
20260507212338 49 152 0.0 0.0 0.00 0.00 0.03 84 1008.0
20260507211837 49 152 0.0 0.0 0.00 0.00 0.03 86 1008.0
20260507211337 49 152 0.0 0.0 0.00 0.00 0.03 87 1008.0
20260507210836 49 152 0.0 0.0 0.00 0.00 0.03 88 1008.0
20260507210337 49 152 0.0 0.0 0.00 0.00 0.03 89 1008.0
20260507205845 50 152 0.0 0.0 0.00 0.00 0.03 90 1008.0
20260507205337 50 152 0.0 0.0 0.00 0.00 0.03 90 1008.0
20260507204837 50 152 0.0 0.0 0.00 0.00 0.03 90 1008.0
20260507204337 50 152 0.0 0.0 0.00 0.00 0.03 90 1008.0
20260507203837 50 152 0.0 0.0 0.00 0.00 0.03 90 1008.0
20260507203337 50 152 0.0 0.0 0.00 0.00 0.03 90 1008.0
20260507202836 50 152 0.0 0.0 0.00 0.00 0.03 89 1008.0
20260507202336 50 152 0.0 0.0 0.00 0.00 0.03 89 1008.0
20260507201836 50 152 0.0 0.0 0.00 0.00 0.03 89 1008.0
20260507201336 50 152 0.0 0.0 0.00 0.00 0.03 88 1008.0
20260507200837 50 152 0.0 0.0 0.00 0.00 0.03 88 1008.0
20260507200336 50 152 0.0 0.0 0.00 0.00 0.03 88 1008.0
20260507195837 51 152 0.0 0.0 0.00 0.00 0.03 88 1007.0
20260507195337 51 152 0.0 0.0 0.00 0.00 0.03 88 1007.0
20260507194836 51 152 0.0 0.0 0.00 0.00 0.03 87 1007.0
20260507194336 51 152 0.0 0.0 0.00 0.00 0.03 87 1007.0
20260507193837 51 152 0.0 0.0 0.00 0.00 0.03 87 1007.0
20260507193338 51 152 0.0 0.0 0.00 0.00 0.03 86 1007.0
20260507192836 51 152 0.0 0.0 0.00 0.00 0.03 86 1007.0
20260507192337 52 152 0.0 0.0 0.00 0.00 0.03 86 1007.0
20260507191837 52 152 0.0 0.0 0.00 0.00 0.03 86 1007.0
20260507191336 52 152 0.0 0.0 0.00 0.00 0.03 86 1007.0
20260507190837 52 152 0.0 0.0 0.00 0.00 0.03 85 1007.0
20260507190337 52 152 0.0 0.0 0.00 0.00 0.03 85 1007.0
20260507185837 52 152 0.0 0.0 0.00 0.00 0.03 85 1007.0
20260507185336 52 152 0.0 0.0 0.00 0.00 0.03 85 1007.0
20260507184838 53 152 0.0 0.0 0.00 0.00 0.03 86 1007.0
20260507184336 53 152 0.0 0.0 0.00 0.00 0.03 86 1007.0
20260507183836 52 152 0.0 0.0 0.00 0.00 0.03 86 1007.0
20260507183337 52 152 0.0 0.0 0.00 0.00 0.03 86 1007.0
20260507182836 52 152 0.0 0.0 0.00 0.00 0.03 86 1007.0
20260507182337 52 152 0.0 0.0 0.00 0.00 0.03 86 1007.0
20260507181837 52 152 0.0 0.0 0.00 0.00 0.03 86 1007.0
20260507181336 52 152 0.0 0.0 0.00 0.00 0.03 86 1007.0
20260507180836 52 152 0.0 0.0 0.00 0.00 0.03 86 1007.0
20260507180337 52 152 0.0 0.0 0.00 0.00 0.03 86 1007.0
20260507175838 52 152 0.0 0.0 0.00 0.00 0.03 86 1007.0
20260507175337 52 152 0.0 0.0 0.00 0.00 0.03 85 1007.0
20260507174838 51 152 0.0 0.0 0.00 0.00 0.03 85 1007.0
20260507174336 51 152 0.0 0.9 0.00 0.00 0.03 85 1007.0
20260507173837 51 153 0.0 0.0 0.00 0.00 0.03 86 1007.0
20260507173336 51 153 0.0 0.0 0.00 0.00 0.03 86 1007.0
20260507172836 51 156 0.0 0.9 0.02 0.00 0.03 85 1007.0
20260507172336 51 108 0.0 0.0 0.05 0.00 0.03 85 1007.0
20260507171837 51 82 0.0 0.9 0.05 0.00 0.02 84 1007.0
20260507171336 52 96 0.9 0.9 0.05 0.00 0.02 84 1007.0
20260507170837 52 102 0.0 0.0 0.05 0.00 0.02 83 1007.0
20260507170339 52 106 0.0 0.9 0.02 0.00 0.01 81 1007.0
20260507165837 53 79 1.7 1.7 0.02 0.00 0.01 78 1007.0
20260507165337 55 138 1.7 2.6 0.02 0.00 0.00 73 1007.0
20260507164837 56 140 0.0 4.3 0.02 0.00 0.00 70 1007.0
20260507164336 57 124 0.0 1.7 0.00 0.00 0.00 62 1007.0
20260507163837 57 167 1.7 1.7 0.00 0.00 0.00 58 1007.0
20260507163337 57 213 2.6 4.3 0.00 0.00 0.00 57 1007.0
20260507162838 58 211 0.9 0.9 0.00 0.00 0.00 57 1007.0
20260507162337 58 145 0.9 1.7 0.00 0.00 0.00 56 1007.0
20260507161837 58 157 0.9 0.9 0.00 0.00 0.00 56 1007.0
20260507161337 58 211 0.0 0.9 0.00 0.00 0.00 56 1007.0
20260507160837 59 135 1.7 2.6 0.00 0.00 0.00 55 1007.0
20260507160337 59 189 0.0 2.6 0.00 0.00 0.00 55 1007.0
20260507155837 59 201 0.0 0.9 0.00 0.00 0.00 55 1007.0
20260507155337 59 227 1.7 4.3 0.00 0.00 0.00 55 1007.0
20260507154837 58 187 0.9 1.7 0.00 0.00 0.00 56 1007.0
20260507154337 58 185 0.9 0.9 0.00 0.00 0.00 55 1007.0
20260507153837 58 193 0.9 2.6 0.00 0.00 0.00 56 1007.0
20260507153337 58 222 0.9 1.7 0.00 0.00 0.00 56 1007.0
20260507152836 57 166 0.0 1.7 0.00 0.00 0.00 57 1007.0
20260507152336 57 210 0.0 0.9 0.00 0.00 0.00 56 1007.0
20260507151837 57 163 0.9 0.9 0.00 0.00 0.00 56 1007.0
20260507151337 57 204 0.0 0.0 0.00 0.00 0.00 57 1007.0
20260507150837 57 162 2.6 4.3 0.00 0.00 0.00 55 1007.0
20260507150337 57 221 1.7 2.6 0.00 0.00 0.00 56 1007.0
20260507145836 57 156 1.7 2.6 0.00 0.00 0.00 56 1007.0
20260507145336 57 221 1.7 5.2 0.00 0.00 0.00 56 1007.0
20260507144837 58 119 0.9 1.7 0.00 0.00 0.00 56 1007.0
20260507144336 58 191 1.7 1.7 0.00 0.00 0.00 57 1007.0
20260507143837 58 190 0.0 1.7 0.00 0.00 0.00 55 1007.0
20260507143337 58 188 0.0 0.0 0.00 0.00 0.00 57 1007.0
20260507142837 58 220 0.9 2.6 0.00 0.00 0.00 56 1007.0
20260507142336 58 105 1.7 2.6 0.00 0.00 0.00 57 1007.0
20260507141837 58 206 0.9 1.7 0.00 0.00 0.00 58 1007.0
20260507141337 57 151 0.9 1.7 0.00 0.00 0.00 59 1007.0
20260507140837 57 218 0.0 0.9 0.00 0.00 0.00 59 1007.0
20260507140337 58 87 1.7 2.6 0.00 0.00 0.00 57 1008.0
20260507135837 58 223 0.0 2.6 0.00 0.00 0.00 58 1008.0
20260507135337 59 164 0.0 1.7 0.00 0.00 0.00 57 1008.0
20260507134837 59 154 0.0 0.9 0.00 0.00 0.00 56 1008.0
20260507134337 59 216 2.6 2.6 0.00 0.00 0.00 56 1007.0
20260507133836 59 206 0.9 4.3 0.00 0.00 0.00 56 1007.0
20260507133339 59 211 0.9 4.3 0.00 0.00 0.00 56 1008.0
20260507132836 59 131 0.0 1.7 0.00 0.00 0.00 57 1008.0
20260507132336 58 139 0.9 0.9 0.00 0.00 0.00 59 1008.0
20260507131837 58 146 0.9 1.7 0.00 0.00 0.00 58 1008.0
20260507131337 58 183 0.0 0.9 0.00 0.00 0.00 60 1008.0
20260507130838 58 202 0.0 0.9 0.00 0.00 0.00 61 1008.0
20260507130336 58 232 0.0 1.7 0.00 0.00 0.00 60 1008.0
20260507125837 58 241 0.9 1.7 0.00 0.00 0.00 59 1008.0
20260507125337 57 175 0.0 0.0 0.00 0.00 0.00 61 1008.0
20260507124836 57 205 0.9 2.6 0.00 0.00 0.00 59 1008.0
20260507124337 57 105 1.7 1.7 0.00 0.00 0.00 60 1008.0
20260507123837 57 169 0.0 1.7 0.00 0.00 0.00 61 1008.0
20260507123336 57 89 0.0 0.0 0.00 0.00 0.00 62 1008.0
20260507122837 56 152 0.0 0.9 0.00 0.00 0.00 61 1008.0